Voltar ao catálogo

HULIANWANG DIGUI-136

AtivoComunicaçõesLEO
NORAD 67244·PAYLOAD·🇨🇳 China

Lançado Dec 25, 2025 de Wenchang Space Launch Site

Loading…

Próximas Passagens (próximas 24 horas)

TLE

AtualizadoSource: Space-Track

Época: Sep 14, 2026, 17:48 UTC

1 67244U 25311J   26257.74231085 -.00000078  00000-0  98845-4 0  9991
2 67244  50.0086 154.5493 0000259 327.6822  32.4034 13.29327813 35251

Acompanhe HULIANWANG DIGUI-136 em tempo real com AllMySat

Download on the App Store